Date String (YYYY-MM-DD hh:mm:ss) UTC,Instrument flags,Ambient pressure (hPa),Sample flow (lpm),Bypass flow (lpm),Sample temperature (°C),Ambient temperature (°C),ASC tube jacket temperature (°C),LED temperature (°C),Box temperature (°C),Sample RH (%),Span deviation,Mass concentration (μg/m³),Mass concentration (μg/m³),Mass concentration (μg/m³)
DateTimeUTC,F1_M11,P_M11,Q1_M11,Q2_M11,T1_M11,T2_M11,T3_M11,T4_M11,T5_M11,U1_M11,ZSPAN_M11,X0_M11,X2_M11,X1_M11
2022-07-19 01:00:00,,0825.3,4.99,0.00,29.3,27.3,00.0,37.9,31.1,21.2,0000.0,0006.80,0003.57,0003.14
2022-07-19 01:01:00,,0825.4,5.00,0.00,29.3,27.5,00.0,37.9,31.1,21.1,0000.0,0006.51,0003.51,0003.11
2022-07-19 01:02:00,,0825.3,5.00,0.00,29.3,27.7,00.0,38.0,31.2,21.0,0000.0,0005.74,0003.47,0003.07
2022-07-19 01:03:00,,0825.3,4.98,0.00,29.3,28.0,00.0,38.0,31.2,20.9,0000.0,0006.09,0003.43,0003.03
2022-07-19 01:04:00,,0825.3,5.01,0.00,29.4,28.2,00.0,38.0,31.3,20.7,0000.0,0005.78,0003.38,0002.99
2022-07-19 01:05:00,,0825.3,5.00,0.00,29.4,28.0,00.0,38.0,31.4,20.6,0000.0,0005.64,0003.34,0002.95
2022-07-19 01:06:00,,0825.3,5.00,0.00,29.4,27.3,00.0,37.9,31.3,20.9,0000.0,0006.06,0003.30,0002.89
2022-07-19 01:07:00,,0825.4,4.99,0.00,29.4,27.0,00.0,37.9,31.2,21.0,0000.0,0006.11,0003.26,0002.85
2022-07-19 01:08:00,,0825.3,5.00,0.00,29.3,27.1,00.0,37.9,31.1,21.3,0000.0,0006.07,0003.25,0002.83
2022-07-19 01:09:00,,0825.4,5.01,0.00,29.3,27.3,00.0,37.9,31.0,21.1,0000.0,0006.06,0003.23,0002.79
2022-07-19 01:10:00,,0825.4,4.99,0.00,29.3,27.5,00.0,37.9,31.1,20.8,0000.0,0006.16,0003.21,0002.76
2022-07-19 01:11:00,,0825.4,4.99,0.00,29.3,27.7,00.0,37.9,31.2,21.0,0000.0,0006.30,0003.20,0002.73
2022-07-19 01:12:00,,0825.4,5.01,0.00,29.3,27.9,00.0,38.0,31.2,21.1,0000.0,0006.25,0003.20,0002.73
2022-07-19 01:13:00,,0825.5,4.99,0.00,29.4,28.1,00.0,38.0,31.3,21.0,0000.0,0006.13,0003.17,0002.70
2022-07-19 01:14:00,,0825.5,5.01,0.00,29.4,28.2,00.0,38.0,31.4,20.8,0000.0,0006.00,0003.16,0002.68
2022-07-19 01:15:00,,0825.5,5.01,0.00,29.4,27.7,00.0,38.0,31.4,20.9,0000.0,0006.23,0003.16,0002.68
2022-07-19 01:16:00,,0825.5,5.00,0.00,29.4,27.1,00.0,37.9,31.3,20.9,0000.0,0006.38,0003.19,0002.67
2022-07-19 01:17:00,,0825.5,5.00,0.00,29.4,27.0,00.0,37.9,31.2,21.1,0000.0,0006.27,0003.23,0002.68
2022-07-19 01:18:00,,0825.5,5.01,0.00,29.3,27.1,00.0,37.9,31.1,21.3,0000.0,0006.29,0003.25,0002.67
2022-07-19 01:19:00,,0825.5,4.99,0.00,29.3,27.3,00.0,37.9,31.1,21.4,0000.0,0006.43,0003.28,0002.66
2022-07-19 01:20:00,,0825.5,5.00,0.00,29.3,27.5,00.0,37.9,31.1,21.4,0000.0,0006.46,0003.28,0002.66
2022-07-19 01:21:00,,0825.5,5.00,0.00,29.3,27.8,00.0,38.0,31.2,21.5,0000.0,0006.25,0003.27,0002.67
2022-07-19 01:22:00,,0825.5,5.01,0.00,29.3,28.0,00.0,38.0,31.3,21.5,0000.0,0006.08,0003.27,0002.67
2022-07-19 01:23:00,,0825.5,4.99,0.00,29.4,28.2,00.0,38.0,31.3,21.6,0000.0,0006.43,0003.30,0002.66
2022-07-19 01:24:00,,0825.5,4.99,0.00,29.4,28.1,00.0,38.0,31.4,21.6,0000.0,0006.49,0003.33,0002.67
2022-07-19 01:25:00,,0825.4,4.99,0.00,29.4,27.4,00.0,38.0,31.3,21.7,0000.0,0006.35,0003.33,0002.68
2022-07-19 01:26:00,,0825.5,5.01,0.00,29.4,27.0,00.0,37.9,31.2,21.7,0000.0,0007.59,0003.35,0002.68
2022-07-19 01:27:00,,0825.4,4.99,0.00,29.3,27.0,00.0,37.9,31.1,21.6,0000.0,0007.58,0003.33,0002.68
2022-07-19 01:28:00,,0825.5,5.00,0.00,29.3,27.2,00.0,37.9,31.0,21.5,0000.0,0007.21,0003.30,0002.68
2022-07-19 01:29:00,,0825.4,5.00,0.00,29.3,27.4,00.0,37.9,31.1,21.4,0000.0,0007.33,0003.28,0002.69
2022-07-19 01:30:00,,0825.4,5.00,0.00,29.3,27.6,00.0,38.0,31.1,21.3,0000.0,0007.64,0003.24,0002.71
2022-07-19 01:31:00,,0825.5,5.01,0.00,29.3,27.8,00.0,38.0,31.2,21.3,0000.0,0007.60,0003.23,0002.72
2022-07-19 01:32:00,,0825.5,4.99,0.00,29.3,28.0,00.0,38.0,31.3,21.2,0000.0,0007.62,0003.24,0002.72
2022-07-19 01:33:00,,0825.5,5.01,0.00,29.4,28.2,00.0,38.0,31.3,21.2,0000.0,0007.70,0003.27,0002.73
2022-07-19 01:34:00,,0825.4,4.99,0.00,29.4,28.2,00.0,38.0,31.4,21.0,0000.0,0007.69,0003.29,0002.76
2022-07-19 01:35:00,,0825.4,5.01,0.00,29.4,27.6,00.0,38.0,31.3,20.9,0000.0,0007.70,0003.29,0002.77
2022-07-19 01:36:00,,0825.5,5.00,0.00,29.4,27.1,00.0,37.9,31.2,21.0,0000.0,0007.59,0003.33,0002.77
2022-07-19 01:37:00,,0825.5,4.99,0.00,29.3,27.1,00.0,37.9,31.2,21.1,0000.0,0006.24,0003.33,0002.78
2022-07-19 01:38:00,,0825.5,5.00,0.00,29.3,27.2,00.0,37.9,31.1,21.3,0000.0,0006.05,0003.35,0002.80
2022-07-19 01:39:00,,0825.5,5.00,0.00,29.3,27.4,00.0,37.9,31.1,21.3,0000.0,0006.03,0003.33,0002.80
2022-07-19 01:40:00,,0825.4,5.00,0.00,29.3,27.6,00.0,38.0,31.1,21.7,0000.0,0006.12,0003.36,0002.82
2022-07-19 01:41:00,,0825.4,5.01,0.00,29.3,27.8,00.0,38.0,31.2,22.0,0000.0,0006.29,0003.45,0002.89
2022-07-19 01:42:00,,0825.4,4.99,0.00,29.3,28.0,00.0,38.0,31.3,22.0,0000.0,0006.68,0003.51,0002.96
2022-07-19 01:43:00,,0825.4,5.01,0.00,29.4,28.2,00.0,38.0,31.3,21.8,0000.0,0007.00,0003.58,0003.05
2022-07-19 01:44:00,,0825.4,4.99,0.00,29.4,28.0,00.0,38.0,31.4,22.1,0000.0,0007.11,0003.63,0003.13
2022-07-19 01:45:00,,0825.4,5.01,0.00,29.4,27.2,00.0,37.9,31.3,22.2,0000.0,0007.42,0003.68,0003.17
2022-07-19 01:46:00,,0825.4,5.00,0.00,29.4,27.0,00.0,37.9,31.2,22.3,0000.0,0007.59,0003.72,0003.22
2022-07-19 01:47:00,,0825.4,4.99,0.00,29.3,27.1,00.0,37.9,31.1,22.3,0000.0,0007.71,0003.75,0003.27
2022-07-19 01:48:00,,0825.4,5.00,0.00,29.3,27.2,00.0,37.9,31.1,22.6,0000.0,0007.78,0003.79,0003.31
2022-07-19 01:49:00,,0825.3,5.00,0.00,29.3,27.4,00.0,38.0,31.1,22.9,0000.0,0008.04,0003.86,0003.36
2022-07-19 01:50:00,,0825.3,4.99,0.00,29.3,27.7,00.0,38.0,31.2,22.9,0000.0,0008.21,0003.95,0003.40
2022-07-19 01:51:00,,0825.3,5.01,0.00,29.3,27.9,00.0,38.0,31.2,22.8,0000.0,0008.43,0004.02,0003.44
2022-07-19 01:52:00,,0825.3,5.00,0.00,29.4,28.1,00.0,38.0,31.3,22.7,0000.0,0008.17,0004.02,0003.46
2022-07-19 01:53:00,,0825.4,5.00,0.00,29.4,28.2,00.0,38.0,31.4,22.6,0000.0,0008.10,0004.04,0003.47
2022-07-19 01:54:00,,0825.3,5.00,0.00,29.4,27.7,00.0,38.0,31.3,22.4,0000.0,0007.96,0004.01,0003.45
2022-07-19 01:55:00,,0825.4,5.02,0.00,29.4,27.0,00.0,37.9,31.2,22.5,0000.0,0007.95,0004.02,0003.45
2022-07-19 01:56:00,,0825.4,4.99,0.00,29.3,27.0,00.0,37.9,31.2,22.4,0000.0,0007.88,0003.99,0003.42
2022-07-19 01:57:00,,0825.4,5.00,0.00,29.3,27.1,00.0,37.9,31.1,22.6,0000.0,0007.69,0003.97,0003.41
2022-07-19 01:58:00,,0825.5,5.00,0.00,29.3,27.3,00.0,37.9,31.1,22.6,0000.0,0007.59,0003.96,0003.39
2022-07-19 01:59:00,,0825.5,5.00,0.00,29.3,27.5,00.0,37.9,31.1,22.7,0000.0,0007.54,0003.94,0003.37
